User: anonymous   Login
Location: Anjeux
(47.8815°N, 6.2076°E)
Time: 15:41:42
(UTC+00:00)
Language:

AO-92 - Orbit

View from above orbital plane
View from above orbital plane
View from above satellite
View from above satellite

Ground track
Ground track

The orbit data is extracted from the following two-line orbital elements,

1 43137U 18004AC  21331.84616300  .00002808  00000-0  11152-3 0  9990
2 43137  97.3925  44.1489 0008450   6.2098 353.9243 15.26129300215575
Epoch (UTC): 27 November 2021 20:18:28
Eccentricity: 0.0008450
inclination: 97.3925°
perigee height: 481 km
apogee height: 493 km
right ascension of ascending node: 44.1489°
argument of perigee: 6.2098°
revolutions per day: 15.26129300
mean anomaly at epoch: 353.9243°
orbit number at epoch: 21557

The dashed part of the orbit path shows where the satellite is in the earth's shadow,  

DLR